map of MEX home
Great Circle Mapper logo
MEX - Airport
Location
City:  México City, Distrito Federal, México
Near (Alt.):Ciudad de México
Name:Benito Juárez International Airport
ICAO / IATA:MMMX / MEX

Details
Type:Airport (Aerodrome, Airfield)
Use:Public/Civil, International (customs port of entry)
Latitude:19°26'11"N (19.436303)
Longitude:99°04'20"W (-99.072096)
Datum:WGS 1984
Elevation:7316 ft (2230 m)
Runways:2
Longest:12966 × 148 ft (3952 × 45 m), paved

Time
Time Zone:UTC-6 (DST-5)
Local Time:

Weather
METAR:MMMX 251052Z 00000KT 5SM SCT020 SCT070 BKN200 13/12 A3036 NOSIG RMK 8/572 HZY
TAF:MMMX 250530Z 2506/2612 30005KT P6SM SCT020 BKN200 TX24/2521Z TN12/2512Z
TEMPO 2508/2512 5SM RA BKN020
FM252100 12012KT P6SM BKN015CB OVC070
TEMPO 2522/2602 5SM TSRA
FM260200 03005KT P6SM SCT020 BKN100

Related Locations
Nearby:
Farthest:NKW: 11425 mi / 18387 km
Diego Garcia, Chagos Archipelago, IO

Find:

   beyond  
but within

Other Information
Maps:
NOTAMs:
Links:
Sources:

  
flag of México   

Sectional Chart

Flight Planning
at skyvector.com

Satellite Image

Google Maps Satellite View

 

Copyright © 2004-2014 Karl L. Swartz. All rights reserved.
The Great Circle Mapper name and logo are trademarks of the Great Circle Mapper.
All other trademarks mentioned herein belong to their respective owners.
Please see credits for attibutions and further copyright information.

  Follow gcmap on Facebook Follow gcmap on Twitter

hCard Microformat

Geo Microformat